星链-30566 (STARLINK-30566 )

导读

STARLINK-30566是美国太空探索技术公司(SpaceX)研发运营的星链(Starlink)卫星,采用Starlink v1.5平台,于2023年10月13日发射。该卫星运行在近地轨道,近地点约477公里、远地点约478公里,轨道倾角53.157°,周期约94分钟,属于星链低轨互联网星座,旨在为全球提供卫星互联网接入服务,目前仍在正常工作。

基本信息
目录编号:
58054
目录名称:
STARLINK-30566
国际标识:
2023-158D
轨道中心:
EARTH
卫星名称:
星链-30566
卫星全名:
星链-30566 (STARLINK-30566 )
卫星状态:
在轨 (已飞行979 天)
发射日期:
2023-10-13 UTC
国别 :
美国 (US)
星等 :
--
轨道信息
数据来源 国际轨道数据
星历时间: 2026-06-17T02:16:35+0800
1天前
查看轨道信息
半长轴: 6861.203km
偏心率: 0.0001063
轨道倾角: 42.999°
近地点辐角 266.131°
升交点赤经 187.386°
平近点角 93.942°
近地点: 482.336km
远地点: 483.796km
周期: 94.267分钟
每日圈数: 15.275746
详细信息
固有亮度:
5
最大亮度:
0.3
卫星平台:
Starlink v2.0 mini
覆盖范围:
全球
运营商:
太空探索技术公司
运营商所在国:
美国
制造商(研发单位):
太空探索技术公司
制造商所在国:
美国
使用方式:
暂无
卫星简介
星链(Starlink)计划是由太空探索技术公司(SpaceX)提出的一个巨型低轨卫星互联网星座项目,计划在2019年至2024年间在太空搭建由约1.2万颗卫星组成的“星链”网络,其中1584颗将部署在地球上空550千米处的近地轨道,并从2020年开始工作。该卫星仍在工作。
2D轨道图
3D轨道图
轨道高度分析图
轨道倾角分析图
轨道综合分析图
查看轨道综合分析图